Wind_Speed
10 10 10 11 12 13 14 14 15 16 16 15 11 6 5 4 3 2 4 5 4 5 5 5 6 5 4 3 3 3 3 2 2 2 3 3 4 5 5 6 6 6 6 7 7 7 7 7 6
12 11 12 12 13 14 16 17 16 16 17 17 12 8 5 3 2 2 3 4 4 5 7 7 7 6 5 4 3 2 1 0 1 2 3 3 4 5 6 6 6 6 6 6 6 6 7 6 6
13 13 13 13 14 16 17 18 17 18 18 16 12 8 6 4 3 4 5 5 6 7 8 8 7 6 5 4 3 2 1 1 2 3 4 4 5 6 7 7 7 7 7 6 6 6 6 6 6
15 14 14 15 16 18 18 18 18 19 18 16 13 9 6 6 4 5 6 6 7 8 9 9 8 7 6 6 4 3 2 3 3 4 5 6 7 7 8 8 9 8 8 8 7 7 7 7 6
16 16 16 17 18 19 20 20 19 19 18 17 15 11 9 6 5 5 6 8 9 10 10 10 9 8 7 6 5 4 4 4 5 6 6 7 8 9 9 10 10 10 11 10 10 9 9 8 7
16 16 17 18 20 20 21 21 21 19 18 17 15 11 10 7 6 6 7 10 11 11 11 11 10 8 7 6 5 5 5 6 6 7 8 9 10 10 11 12 12 12 13 13 13 12 11 11 9
17 17 18 20 21 22 22 22 21 20 19 17 14 13 11 10 8 8 9 10 12 12 12 11 10 9 7 6 6 6 6 7 8 9 10 10 11 13 13 13 14 14 15 15 15 15 13 13 12
16 17 19 20 21 22 22 22 22 21 21 19 17 15 14 13 11 10 10 12 13 13 12 12 10 9 8 7 7 7 8 9 10 10 11 13 13 14 15 15 16 17 17 17 17 16 16 15 14
15 16 17 18 19 20 21 22 22 23 22 20 18 18 16 14 13 13 13 14 14 14 13 12 11 9 8 8 8 8 9 10 11 12 13 14 15 15 16 17 17 17 18 18 18 17 17 16 16
14 14 15 16 17 18 20 22 22 22 21 19 18 17 16 15 15 15 15 16 16 15 14 13 11 10 9 9 9 9 10 11 11 12 13 14 15 16 16 17 17 18 18 18 18 18 17 17 17
11 12 13 14 15 16 18 20 21 21 21 19 18 17 15 14 14 16 17 18 18 16 15 14 13 11 10 10 10 10 10 11 11 12 14 14 14 15 15 16 17 17 17 17 17 17 17 16 16
10 11 12 13 14 15 16 18 19 20 20 19 16 15 14 15 13 16 18 18 18 19 17 16 15 13 11 10 10 10 10 11 12 13 14 14 14 14 15 15 16 16 16 16 16 16 16 16 15
10 10 11 12 14 16 16 17 18 19 19 17 15 14 14 15 15 16 17 18 18 19 17 16 14 13 11 9 9 9 10 11 12 13 13 14 14 14 14 15 15 15 15 15 15 15 16 16 15
10 10 11 12 14 15 15 16 17 17 16 15 14 13 14 15 15 16 16 17 18 18 17 16 14 12 10 9 9 9 10 11 11 12 13 13 14 14 14 14 13 14 15 16 16 16 16 16 16
10 10 12 13 14 14 14 15 17 17 14 12 11 12 12 13 14 15 16 17 17 17 15 14 12 10 9 8 8 9 10 10 11 12 12 12 12 12 13 13 13 13 14 15 16 16 16 16 16
10 11 12 13 14 14 15 15 16 16 14 11 10 10 9 12 14 16 17 16 15 14 13 12 10 8 7 7 7 7 8 9 10 10 10 10 9 10 10 11 12 12 13 13 14 15 15 15 16
10 11 11 12 14 15 15 15 15 16 12 8 6 6 7 10 12 15 17 16 15 14 13 12 9 8 7 6 5 6 7 8 8 9 9 8 9 9 9 10 10 10 11 12 13 14 14 15 15
10 10 10 12 14 15 15 15 15 15 11 7 5 5 6 8 10 13 15 15 14 13 11 11 8 7 6 5 5 5 6 7 7 8 8 7 8 8 9 9 9 10 11 12 13 13 13 14 15
9 10 11 12 13 14 14 15 14 13 12 7 5 5 7 8 10 12 13 13 13 12 11 10 9 7 6 5 5 5 6 6 6 7 6 7 7 7 8 8 9 9 10 10 11 11 12 13 13
10 10 11 12 13 13 14 14 13 13 10 7 3 3 7 9 12 12 12 13 12 12 11 10 8 7 6 5 4 5 5 6 6 6 6 6 6 7 7 8 8 9 10 10 11 12 12 12 13
10 11 11 12 12 13 13 13 13 12 10 6 2 2 6 9 11 12 12 12 12 11 11 9 8 7 6 5 4 4 5 5 5 5 5 5 6 6 7 7 8 9 10 10 11 12 12 13 13
11 12 12 11 11 11 12 13 13 11 9 6 2 3 6 8 10 11 11 11 11 11 10 9 8 6 5 4 4 4 4 3 3 3 4 5 5 6 7 8 9 9 10 11 12 12 13 13 14
12 13 12 12 11 11 11 12 12 10 8 5 2 4 7 8 10 11 11 11 11 10 9 8 7 6 5 4 4 4 3 2 2 3 4 4 5 6 6 7 8 9 10 11 13 13 14 14 15
12 13 12 11 11 10 10 11 11 10 7 4 1 3 5 7 8 9 10 10 9 8 8 8 7 6 5 5 4 4 3 2 2 3 3 4 5 5 6 8 9 10 11 13 14 15 16 16 17
12 13 12 10 9 8 9 8 8 8 6 3 0 2 4 5 6 7 8 8 8 8 7 7 7 7 6 6 5 4 3 3 3 3 3 4 5 6 7 8 9 11 12 14 15 16 18 18 19
13 13 11 10 8 8 8 7 7 7 6 4 3 2 3 4 5 6 7 7 7 8 8 8 8 7 7 6 6 5 4 4 4 4 4 4 5 6 8 9 11 12 14 15 17 18 19 20 21
14 13 12 11 9 8 8 8 7 6 6 5 5 4 4 4 5 6 7 7 8 8 8 8 8 8 8 7 7 6 5 5 5 5 6 6 7 8 9 11 13 14 16 17 19 20 21 22 23
14 13 13 13 12 10 9 9 8 7 7 7 7 6 6 6 7 7 8 9 9 9 9 9 9 9 9 8 8 8 7 7 7 7 8 8 9 10 12 13 15 16 18 19 21 22 23 25 25
15 14 14 15 15 14 12 9 10 9 8 8 8 8 8 8 9 9 9 9 10 10 10 10 10 10 10 10 10 9 9 9 9 9 9 10 11 13 14 16 17 18 20 22 23 25 26 26 27
16 15 16 17 17 16 14 9 11 11 10 10 10 9 10 10 10 11 11 11 11 11 11 12 12 12 12 12 12 11 11 11 11 11 12 13 14 15 17 18 19 21 22 24 25 26 28 28 29
Wind_Direction
304 304 303 301 297 294 290 288 290 295 302 298 281 259 238 214 204 201 192 191 208 228 225 224 215 200 187 167 146 126 101 80 59 43 25 9 1 357 356 356 355 355 356 357 359 1 2 4 11
302 300 299 297 294 292 288 287 289 296 304 306 286 267 269 249 227 213 195 200 225 237 233 227 221 206 200 193 180 163 128 55 343 340 345 341 339 338 339 339 342 344 345 347 349 350 349 348 352
301 299 296 293 289 287 287 289 291 293 306 309 302 284 282 290 257 220 211 214 229 239 233 225 219 213 212 210 204 212 241 285 305 310 315 320 324 326 327 327 328 328 330 332 334 337 335 334 333
300 297 293 289 286 285 285 288 293 300 305 308 309 302 293 291 271 228 218 215 228 232 227 222 219 218 220 219 216 227 252 278 292 297 301 307 312 315 316 316 315 313 314 313 314 318 321 323 323
298 295 289 285 283 282 282 286 293 296 300 304 306 300 287 273 263 240 222 217 222 225 225 221 222 224 228 225 227 236 252 268 280 289 295 300 304 307 309 310 307 304 303 304 303 304 306 309 309
298 294 288 284 283 283 285 289 292 294 297 300 300 295 284 270 267 251 232 224 222 224 229 222 219 221 226 230 238 248 257 267 276 284 290 295 297 301 305 305 302 299 299 298 298 297 297 299 299
300 296 291 287 285 287 289 291 291 294 296 296 292 287 283 280 267 254 234 220 221 226 228 222 215 216 225 232 244 259 268 273 278 284 289 293 296 297 298 299 299 298 297 296 294 294 294 294 290
304 299 295 293 292 291 291 291 292 293 293 292 289 289 281 271 258 245 235 222 221 223 221 218 217 220 224 235 251 264 271 275 280 286 289 292 294 296 296 295 295 294 293 292 292 290 290 289 286
310 302 301 300 297 293 291 289 291 293 293 292 287 288 281 269 256 243 234 222 217 217 218 219 219 220 226 238 253 264 270 276 283 287 289 290 291 293 293 293 293 293 292 291 290 290 288 284 283
312 308 307 305 302 297 294 293 295 296 295 292 289 286 281 266 245 232 225 216 211 214 218 221 221 223 230 241 255 266 271 277 284 287 288 289 289 290 291 291 290 290 291 290 289 289 288 284 281
315 311 311 309 306 302 300 299 299 298 298 294 289 281 279 264 236 225 218 213 213 215 219 222 225 230 234 245 257 267 275 280 284 288 290 291 291 290 291 291 290 289 289 290 289 286 287 285 283
314 315 313 311 311 308 306 306 305 301 299 295 287 277 266 251 232 222 216 214 216 214 216 222 229 233 235 246 259 271 277 280 285 289 290 292 292 291 292 290 288 288 288 288 289 285 284 285 284
318 321 322 319 319 315 313 311 311 309 304 296 284 271 259 242 231 221 214 214 212 213 215 220 227 230 238 247 263 276 280 283 287 291 294 294 292 291 291 291 287 287 288 288 289 286 285 285 283
322 327 328 328 327 324 320 315 315 314 308 301 287 273 261 247 233 220 212 210 212 213 214 217 222 231 240 253 263 278 283 287 291 296 295 296 294 290 288 288 290 289 287 286 287 287 287 286 284
320 324 325 328 329 329 327 321 318 319 313 305 290 276 266 240 223 214 209 209 207 209 210 213 221 230 243 251 264 277 284 288 294 299 298 295 293 290 289 287 289 290 289 289 289 289 289 286 284
319 325 326 330 332 334 332 329 323 322 318 305 289 280 263 231 216 211 209 207 210 211 208 210 218 226 233 247 264 277 287 292 295 296 296 294 295 294 294 293 293 292 293 293 294 293 291 288 287
320 324 327 329 330 332 332 328 325 326 325 316 289 270 240 220 210 210 205 205 208 204 202 207 211 215 220 241 263 278 285 290 292 294 294 296 298 299 302 301 300 301 299 299 299 296 293 291 289
321 326 329 331 331 332 331 330 326 327 330 318 295 253 223 208 201 197 193 191 195 196 196 198 198 206 219 240 257 272 281 286 293 296 298 301 306 308 309 309 308 307 305 306 306 303 300 297 294
317 326 329 331 333 333 333 335 334 335 339 325 287 236 207 203 194 191 189 184 185 188 190 191 195 205 219 236 249 267 280 286 298 304 309 317 318 316 315 317 316 313 314 316 317 316 311 304 301
314 320 324 325 327 331 332 337 340 340 344 343 308 230 201 194 183 183 186 188 187 183 185 191 198 209 215 222 244 266 280 287 299 308 314 317 319 322 324 324 322 322 323 322 322 322 320 314 308
310 318 320 324 325 327 330 337 341 342 352 357 351 177 185 182 180 180 182 184 188 188 195 198 197 197 209 228 252 272 281 289 296 305 315 321 325 329 331 332 331 332 332 329 327 326 324 322 318
314 315 317 321 323 328 330 337 343 347 352 5 47 133 157 166 174 175 179 182 187 191 192 190 191 199 212 229 251 266 278 289 295 307 319 326 331 334 338 340 339 338 337 334 332 330 327 325 321
310 311 310 311 314 318 326 334 343 346 351 5 81 124 149 161 168 174 176 177 181 184 189 192 196 203 210 219 237 248 262 280 294 310 318 325 332 336 339 342 343 342 340 338 337 335 333 329 324
308 308 307 307 308 314 321 327 339 346 351 4 95 138 153 162 167 173 178 177 179 184 191 194 196 203 210 216 226 235 248 268 287 299 310 323 333 339 342 344 344 345 343 340 338 336 334 331 327
300 305 306 305 306 311 319 325 334 342 347 356 72 170 174 172 172 174 180 183 188 191 194 199 202 207 213 219 225 233 243 257 270 286 305 317 326 333 336 339 341 341 341 340 338 336 335 331 327
294 298 303 305 304 308 312 320 325 330 335 327 296 248 203 193 186 189 193 196 200 204 205 210 211 212 218 224 228 233 240 246 257 274 291 303 313 322 328 331 331 331 331 331 331 331 331 329 326
288 291 295 297 297 303 309 310 314 317 317 312 294 272 241 219 215 215 218 217 217 217 218 219 216 218 223 228 231 233 235 243 255 269 281 291 301 312 318 321 322 324 325 327 326 326 325 325 325
281 285 286 289 293 296 298 300 299 291 288 283 276 269 257 239 229 227 229 227 223 222 223 224 222 223 227 231 235 237 240 248 260 271 281 289 296 303 308 311 315 318 321 324 325 324 323 322 321
277 282 284 283 287 291 293 289 286 282 274 275 270 262 258 250 240 235 233 231 228 227 229 230 229 230 232 236 241 244 247 254 264 275 283 289 294 298 303 306 311 313 314 317 319 320 322 321 320
272 278 281 282 283 283 284 289 277 273 275 275 271 265 261 256 249 245 242 239 237 236 237 236 237 238 240 243 246 249 254 260 268 275 283 289 293 295 299 303 307 309 311 313 314 316 318 318 318
Height
5899 5898 5898 5898 5898 5896 5894 5893 5892 5891 5891 5890 5889 5889 5888 5889 5890 5893 5892 5891 5892 5893 5894 5895 5895 5895 5895 5896 5896 5896 5897 5898 5899 5899 5900 5900 5901 5901 5901 5901 5901 5901 5901 5901 5901 5901 5901 5901 5901
5897 5897 5897 5896 5895 5893 5892 5891 5890 5890 5889 5888 5888 5887 5886 5886 5886 5888 5889 5890 5891 5892 5893 5894 5894 5894 5895 5895 5896 5896 5897 5897 5898 5899 5899 5900 5900 5900 5900 5901 5901 5901 5900 5900 5901 5901 5901 5901 5901
5895 5895 5895 5894 5892 5892 5891 5889 5889 5888 5887 5886 5886 5885 5885 5885 5886 5886 5888 5889 5890 5891 5892 5893 5893 5894 5894 5894 5895 5895 5896 5897 5897 5898 5898 5899 5899 5899 5899 5899 5899 5899 5899 5899 5900 5900 5900 5900 5900
5893 5893 5893 5892 5890 5889 5888 5888 5887 5887 5886 5885 5885 5884 5884 5885 5884 5885 5886 5887 5889 5890 5891 5892 5892 5893 5893 5893 5894 5895 5895 5896 5897 5897 5897 5898 5898 5898 5898 5898 5898 5898 5898 5898 5898 5898 5899 5899 5899
5890 5890 5890 5888 5887 5886 5885 5885 5885 5885 5884 5883 5883 5882 5882 5883 5883 5884 5885 5886 5887 5889 5889 5890 5891 5891 5892 5892 5893 5894 5895 5895 5896 5896 5896 5897 5897 5897 5896 5896 5896 5896 5896 5896 5897 5897 5897 5897 5898
5888 5887 5887 5885 5884 5884 5883 5883 5883 5882 5882 5881 5880 5880 5880 5881 5881 5882 5883 5884 5885 5887 5888 5889 5889 5890 5891 5892 5892 5893 5894 5894 5895 5895 5895 5895 5895 5895 5895 5895 5894 5894 5894 5894 5894 5895 5895 5896 5896
5886 5885 5883 5882 5881 5881 5880 5880 5879 5879 5879 5878 5878 5878 5878 5878 5879 5880 5881 5882 5883 5885 5886 5887 5888 5888 5890 5891 5891 5892 5893 5893 5893 5894 5894 5894 5894 5893 5893 5893 5892 5892 5891 5891 5892 5892 5893 5893 5894
5884 5883 5881 5879 5878 5878 5877 5876 5875 5876 5876 5875 5875 5874 5875 5875 5875 5877 5878 5879 5881 5883 5884 5885 5886 5887 5888 5889 5890 5891 5891 5891 5892 5892 5892 5892 5892 5891 5891 5890 5890 5889 5889 5889 5888 5889 5890 5890 5891
5882 5881 5879 5877 5876 5875 5874 5873 5872 5872 5871 5871 5871 5871 5870 5871 5872 5873 5875 5877 5879 5880 5882 5883 5884 5885 5886 5887 5888 5889 5889 5889 5889 5889 5889 5889 5889 5889 5888 5888 5887 5886 5886 5886 5885 5886 5886 5887 5887
5880 5878 5877 5876 5874 5872 5870 5869 5868 5868 5867 5866 5866 5866 5866 5866 5867 5869 5871 5873 5876 5878 5880 5881 5882 5883 5884 5885 5886 5886 5887 5887 5887 5887 5887 5886 5886 5886 5885 5885 5884 5884 5883 5883 5883 5883 5883 5883 5883
5878 5877 5875 5873 5872 5870 5868 5866 5865 5863 5862 5861 5861 5861 5861 5861 5862 5864 5867 5869 5872 5874 5877 5879 5880 5881 5882 5882 5883 5884 5884 5884 5884 5884 5884 5884 5883 5883 5882 5882 5881 5881 5880 5880 5880 5880 5880 5880 5880
5877 5875 5873 5872 5869 5867 5865 5863 5861 5859 5858 5856 5856 5857 5857 5857 5858 5861 5863 5866 5868 5871 5874 5876 5877 5879 5879 5880 5880 5881 5881 5881 5881 5881 5881 5881 5881 5880 5879 5879 5878 5878 5878 5877 5877 5877 5877 5877 5877
5875 5874 5872 5870 5868 5865 5863 5860 5858 5855 5853 5852 5851 5852 5853 5853 5854 5857 5859 5861 5864 5867 5870 5872 5874 5876 5877 5877 5878 5878 5879 5879 5879 5879 5878 5878 5878 5877 5877 5876 5875 5875 5875 5875 5874 5874 5874 5874 5874
5875 5873 5871 5868 5866 5863 5861 5858 5855 5852 5850 5848 5847 5847 5848 5849 5851 5853 5855 5859 5862 5865 5867 5869 5871 5873 5874 5875 5875 5876 5876 5877 5877 5876 5876 5875 5875 5875 5874 5874 5873 5873 5872 5872 5872 5871 5871 5871 5871
5873 5872 5870 5867 5864 5861 5859 5856 5852 5849 5847 5845 5843 5843 5844 5845 5847 5849 5852 5855 5858 5861 5864 5866 5869 5871 5872 5873 5873 5874 5874 5874 5874 5874 5874 5873 5873 5872 5872 5871 5871 5871 5870 5869 5869 5869 5868 5868 5868
5873 5871 5869 5866 5862 5860 5859 5855 5851 5847 5844 5842 5840 5840 5840 5842 5844 5847 5849 5852 5855 5859 5861 5864 5866 5868 5870 5871 5871 5871 5872 5872 5872 5872 5872 5871 5871 5870 5870 5869 5869 5868 5868 5867 5867 5866 5865 5865 5864
5872 5870 5867 5865 5861 5858 5856 5853 5849 5845 5842 5840 5839 5838 5838 5840 5842 5844 5846 5850 5853 5856 5859 5862 5864 5866 5868 5869 5869 5870 5870 5870 5870 5870 5870 5869 5869 5869 5868 5868 5867 5867 5866 5865 5864 5863 5862 5862 5861
5871 5869 5866 5864 5861 5858 5855 5851 5848 5844 5841 5839 5838 5837 5837 5838 5840 5842 5845 5848 5851 5854 5857 5860 5862 5865 5866 5867 5868 5869 5869 5869 5869 5868 5868 5868 5867 5867 5867 5866 5866 5865 5864 5863 5862 5861 5860 5859 5858
5870 5868 5865 5863 5860 5857 5854 5851 5847 5844 5841 5838 5837 5836 5836 5837 5839 5841 5844 5848 5850 5854 5856 5859 5861 5863 5865 5866 5867 5867 5868 5868 5867 5867 5866 5866 5866 5866 5865 5865 5864 5863 5862 5861 5860 5859 5858 5856 5855
5868 5866 5864 5862 5859 5856 5853 5850 5847 5843 5840 5838 5837 5836 5836 5838 5839 5841 5844 5847 5850 5852 5855 5858 5860 5862 5863 5864 5865 5866 5866 5866 5865 5865 5865 5865 5864 5864 5864 5863 5863 5862 5860 5859 5858 5857 5856 5854 5853
5866 5864 5862 5860 5858 5856 5853 5851 5847 5844 5841 5839 5837 5836 5837 5838 5840 5841 5844 5846 5849 5852 5854 5857 5858 5860 5861 5862 5863 5864 5864 5864 5864 5864 5864 5863 5863 5863 5862 5862 5861 5860 5859 5858 5856 5855 5854 5852 5851
5863 5862 5860 5859 5857 5855 5853 5850 5848 5844 5842 5840 5838 5837 5838 5839 5841 5842 5844 5846 5849 5851 5853 5855 5857 5858 5860 5860 5861 5862 5863 5863 5863 5863 5862 5862 5862 5861 5861 5860 5859 5858 5857 5856 5855 5853 5852 5850 5849
5861 5860 5859 5857 5856 5855 5852 5850 5849 5845 5843 5841 5839 5839 5840 5840 5842 5843 5845 5846 5849 5851 5852 5854 5856 5857 5858 5859 5860 5861 5861 5861 5861 5861 5861 5861 5860 5860 5859 5858 5857 5856 5855 5854 5852 5851 5849 5848 5846
5859 5858 5857 5856 5855 5854 5852 5850 5849 5846 5844 5842 5841 5840 5841 5842 5843 5844 5845 5847 5848 5850 5852 5853 5854 5856 5857 5858 5859 5859 5859 5859 5860 5860 5860 5859 5859 5858 5858 5857 5856 5854 5853 5852 5850 5848 5847 5845 5843
5857 5857 5856 5854 5853 5853 5851 5849 5849 5847 5845 5844 5843 5842 5842 5842 5843 5844 5845 5846 5848 5849 5851 5852 5853 5854 5856 5857 5857 5858 5858 5858 5858 5858 5858 5858 5857 5857 5856 5855 5854 5852 5851 5849 5848 5846 5844 5842 5840
5855 5855 5854 5853 5852 5851 5850 5849 5849 5847 5845 5844 5844 5844 5843 5843 5844 5844 5845 5846 5847 5849 5850 5851 5852 5853 5854 5855 5855 5856 5856 5856 5856 5856 5856 5856 5855 5855 5854 5853 5851 5850 5848 5847 5845 5843 5841 5838 5836
5852 5852 5852 5851 5850 5850 5849 5849 5848 5847 5846 5845 5844 5844 5843 5843 5843 5844 5845 5845 5846 5847 5848 5849 5850 5851 5852 5853 5853 5853 5854 5854 5854 5854 5854 5854 5853 5852 5851 5850 5848 5847 5845 5843 5841 5839 5837 5834 5832
5850 5849 5849 5848 5848 5847 5848 5847 5847 5846 5845 5845 5844 5843 5843 5843 5843 5843 5844 5844 5845 5846 5847 5848 5848 5849 5850 5850 5851 5851 5851 5851 5852 5851 5851 5850 5850 5849 5848 5846 5845 5843 5841 5839 5837 5835 5832 5830 5827
5846 5846 5845 5845 5845 5845 5844 5847 5845 5844 5844 5844 5843 5842 5842 5842 5842 5842 5842 5843 5843 5844 5845 5846 5846 5847 5847 5848 5848 5848 5848 5848 5848 5848 5847 5847 5846 5845 5844 5842 5841 5839 5837 5835 5832 5830 5827 5824 5821
5841 5841 5841 5842 5841 5841 5841 5845 5843 5842 5841 5841 5841 5841 5841 5841 5840 5841 5841 5841 5842 5842 5843 5843 5843 5844 5844 5844 5845 5844 5845 5845 5844 5844 5843 5843 5842 5841 5839 5838 5836 5834 5832 5830 5827 5824 5821 5818 5815